Regional Weather Roundup
Issued by NWS Little Rock, AR

Home | Current Version | Previous Version | Graphics & Text | Print | Product List | Glossary On
Versions: 1 2 3 4 5 6 7 8 9 10 11 12 13 14 15 16 17 18 19 20 21 22 23 24 25 26 27 28 29 30 31 32 33 34 35 36 37 38 39 40 41 42 43 44 45 46 47 48 49 50
000
ASUS44 KLZK 161305
RWRLZK

WEATHER ROUNDUP FOR ARKANSAS
NATIONAL WEATHER SERVICE LITTLE ROCK AR
800 AM CDT TUE SEP 16 2014

NOTE: "FAIR" INDICATES FEW OR NO CLOUDS BELOW 12,000 FEET WITH NO
SIGNIFICANT WEATHER AND/OR OBSTRUCTIONS TO VISIBILITY.

ARZ001-003-010-029-161400-
NORTHWEST ARKANSAS

CITY           SKY/WX    TMP DP  RH WIND       PRES   REMARKS
FAYETTEVILLE   CLOUDY    66  66 100 CALM      30.17S FOG
FORT SMITH     CLOUDY    69  67  93 CALM      30.14S FOG
HARRISON       FOG       66  66 100 CALM      30.18S VSB 3/4
BENTONVILLE    CLOUDY    68  64  88 N5        30.18S
ROGERS         CLOUDY    67  65  93 N3        30.19R FOG
SILOAM SPGS    CLOUDY    70  64  83 CALM      30.18S
HIGHFILL       CLOUDY    67  67 100 N6        30.17S FOG
SPRINGDALE     CLOUDY    68  68 100 CALM      30.19S FOG
$$

ARZ004-005-016-161400-
NORTH CENTRAL ARKANSAS

CITY           SKY/WX    TMP DP  RH WIND       PRES   REMARKS
BATESVILLE     CLOUDY    68  66  94 CALM      30.15S
FLIPPIN        CLOUDY    66  61  82 NE7       30.17S
MTN HOME       CLOUDY    65  62  90 NE5       30.17R
$$

ARZ040-041-161400-
WEST CENTRAL ARKANSAS

CITY           SKY/WX    TMP DP  RH WIND       PRES   REMARKS
MENA             N/A     72  70  94 CALM      30.17
MOUNT IDA      MOSUNNY   69  67  93 CALM      30.13R FOG
$$

ARZ009-017-025-026-028-161400-
NORTHEAST ARKANSAS

CITY           SKY/WX    TMP DP  RH WIND       PRES   REMARKS
JONESBORO      CLOUDY    68  64  87 NE7       30.14S
NEWPORT        CLOUDY    68  67  96 NE9       30.15S
WALNUT RIDGE   CLOUDY    64  61  88 N7        30.16R
BLYTHEVILLE    CLOUDY    66  64  93 NE9       30.14S
NW BLYTHEVILLE CLOUDY    66  63  88 NE9       30.14
$$

ARZ022-023-033-042-044-161400-
CENTRAL ARKANSAS

CITY           SKY/WX    TMP DP  RH WIND       PRES   REMARKS
LITTLE ROCK    MOSUNNY   74  68  81 N5        30.13S
N LITTLE ROCK    N/A     70  69  96 NW5       30.13S
JACKSONVILLE   SUNNY     71  68  93 SW2       30.13R
SEARCY         PTSUNNY   69  68  97 N6        30.14S
HOT SPRINGS    MOSUNNY   71  68  90 CALM      30.14S
RUSSELLVILLE   CLOUDY    69  67  93 CALM      30.14S FOG
CLINTON        CLOUDY    64  64 100 CALM      30.15S
$$

ARZ036-161400-
EAST ARKANSAS

CITY           SKY/WX    TMP DP  RH WIND       PRES   REMARKS
WEST MEMPHIS   CLOUDY    67  67 100 N9        30.12R FOG
$$

ARZ050-053-066-070-073-161400-
SOUTHWEST ARKANSAS

CITY           SKY/WX    TMP DP  RH WIND       PRES   REMARKS
ARKADELPHIA    PTSUNNY   70  70 100 CALM      30.14R FOG
CAMDEN         CLOUDY    68  66  94 CALM      30.12R FOG
TEXARKANA      CLOUDY    71  69  93 CALM      30.13R
EL DORADO      CLOUDY    70  68  93 CALM      30.12R FOG
DE QUEEN       PTSUNNY   69  69 100 CALM      30.12S FOG
$$

ARZ056-057-069-161400-
SOUTHEAST ARKANSAS

CITY           SKY/WX    TMP DP  RH WIND       PRES   REMARKS
PINE BLUFF     PTSUNNY   71  68  90 NW5       30.12S
STUTTGART      MOSUNNY   70  66  88 NW3       30.14R
MONTICELLO     CLOUDY    71  68  90 CALM      30.12R

$$




USA.gov is the U.S. government's official web portal to all federal, state and local government web resources and services.